Weather reports worldwide

Advertisment
Coria/Tabacoa, Spain (8251): temperature & dewpoint: 19.08.2019 08:00:00 - 25.08.2019 08:00:00 (CEST)Coria/Tabacoa, Spain (8251): wind speed & gusts: 19.08.2019 08:00:00 - 25.08.2019 08:00:00 (CEST)Coria/Tabacoa, Spain (8251): wind direction: 19.08.2019 08:00:00 - 25.08.2019 08:00:00 (CEST)Coria/Tabacoa, Spain (8251): reduced air pressure: 19.08.2019 08:00:00 - 25.08.2019 08:00:00 (CEST)Coria/Tabacoa, Spain (8251): visibility: 19.08.2019 08:00:00 - 25.08.2019 08:00:00 (CEST)Coria/Tabacoa, Spain (8251): sunshine duration: 19.08.2019 08:00:00 - 25.08.2019 08:00:00 (CEST)Coria/Tabacoa, Spain (8251): precipitation: 19.08.2019 08:00:00 - 25.08.2019 08:00:00 (CEST)
Date & Time tt [°C] td [°C] ff [km/h] ff [kn] fx [km/h] fx [kn] dd ppp [hPa] vv [km] sd [min] rr [mm]
25.08.2019 08:00:00 - - - - - - - - - - -
25.08.2019 07:00:00 24,4 11,0 7 4 18 10 E 1012,8 20 0 0,0
25.08.2019 06:00:00 24,5 10,4 8 4 13 7 NNW 1012,6 20 0 0,0
25.08.2019 05:00:00 25,4 10,0 4 2 19 11 N 1012,9 20 0 0,0
25.08.2019 04:00:00 26,5 9,8 11 6 20 11 NNW 1012,5 20 0 0,0
25.08.2019 03:00:00 26,6 9,9 5 3 29 15 NNW 1012,9 20 0 0,0
25.08.2019 02:00:00 27,2 9,9 14 8 28 15 N 1012,9 20 0 -
25.08.2019 01:00:00 27,9 8,7 16 9 29 16 N 1013,0 20 0 0,0
25.08.2019 00:00:00 28,4 8,1 17 9 29 16 NNW 1013,0 20 0 0,0
24.08.2019 23:00:00 29,9 5,9 7 4 18 10 SE 1012,9 20 0 0,0
24.08.2019 22:00:00 31,4 3,4 6 3 11 6 ENE 1012,2 20 0 0,0
24.08.2019 21:00:00 34,2 2,9 6 3 14 8 ENE 1011,7 20 20 0,0
24.08.2019 20:00:00 36,8 2,7 11 6 21 11 E 1011,5 20 60 -
24.08.2019 19:00:00 38,1 2,5 6 4 15 8 SE 1011,9 20 60 0,0
24.08.2019 18:00:00 38,7 3,0 4 2 21 11 SSW 1012,3 20 60 0,0
24.08.2019 17:00:00 38,0 3,6 5 3 22 12 S 1012,7 20 60 0,0
24.08.2019 16:00:00 37,2 4,1 6 4 26 14 NE 1013,4 20 60 0,0
24.08.2019 15:00:00 36,5 4,6 9 5 27 15 E 1014,1 20 60 0,0
24.08.2019 14:00:00 35,0 5,5 12 6 27 15 E 1014,9 20 60 -
24.08.2019 13:00:00 33,2 6,4 18 10 33 18 E 1015,7 20 60 0,0
24.08.2019 12:00:00 30,9 6,1 17 9 32 18 E 1016,4 20 60 0,0
24.08.2019 11:00:00 29,0 7,0 17 9 34 18 E 1016,4 20 60 0,0
24.08.2019 10:00:00 26,9 5,8 18 10 28 15 E 1016,4 20 60 0,0
24.08.2019 09:00:00 24,7 7,3 11 6 18 10 E 1016,2 20 36 0,0
24.08.2019 08:00:00 20,3 8,7 11 6 13 7 E 1016,4 20 0 -
24.08.2019 07:00:00 22,2 9,0 4 2 10 5 E 1015,8 20 0 0,0
24.08.2019 06:00:00 23,5 7,1 7 4 11 6 ENE 1015,6 20 0 0,0
24.08.2019 05:00:00 23,9 7,1 5 3 12 7 ENE 1015,7 20 0 0,0
24.08.2019 04:00:00 24,7 6,4 5 3 10 5 NE 1015,6 20 0 0,0
24.08.2019 03:00:00 25,0 6,7 5 3 7 4 E 1015,5 20 0 0,0
24.08.2019 02:00:00 27,6 8,0 5 3 29 15 ESE 1015,0 20 0 -
24.08.2019 01:00:00 28,6 4,1 10 5 31 17 NNE 1014,7 20 0 0,0
24.08.2019 00:00:00 28,6 6,1 9 5 14 8 ENE 1014,4 20 0 0,0
23.08.2019 23:00:00 29,1 4,5 3 2 9 5 E 1014,1 20 0 0,0
23.08.2019 22:00:00 30,8 4,5 5 3 8 5 E 1013,5 20 0 0,0
23.08.2019 21:00:00 33,6 4,3 4 2 12 7 ESE 1013,0 20 28 0,0
23.08.2019 20:00:00 35,6 3,9 8 4 15 8 SSE 1012,8 20 60 -
23.08.2019 19:00:00 37,4 3,2 5 3 18 10 S 1013,1 20 60 0,0
23.08.2019 18:00:00 37,3 4,3 5 3 21 11 S 1013,4 20 60 0,0
23.08.2019 17:00:00 37,1 4,1 10 6 25 14 ESE 1013,8 20 60 0,0
23.08.2019 16:00:00 36,4 4,6 10 6 29 15 E 1014,4 20 60 0,0
23.08.2019 15:00:00 35,4 7,4 13 7 27 15 ESE 1015,3 20 60 0,0
23.08.2019 14:00:00 33,7 9,0 14 8 31 17 E 1015,9 20 60 -
23.08.2019 13:00:00 32,2 9,7 16 9 34 18 E 1016,6 20 60 0,0
23.08.2019 12:00:00 30,3 9,8 21 11 38 21 E 1017,4 20 60 0,0
23.08.2019 11:00:00 28,2 9,9 24 13 40 22 ESE 1017,5 20 60 0,0
23.08.2019 10:00:00 25,8 7,4 17 9 39 21 E 1017,5 20 60 0,0
23.08.2019 09:00:00 24,5 4,3 18 10 31 17 E 1017,3 20 36 0,0
23.08.2019 08:00:00 23,3 2,7 17 9 36 19 E 1017,0 20 0 -
23.08.2019 07:00:00 24,0 2,1 14 8 26 14 E 1016,3 20 0 0,0
23.08.2019 06:00:00 24,5 1,3 12 6 21 11 E 1016,0 20 0 0,0
23.08.2019 05:00:00 23,0 4,5 10 5 15 8 E 1016,0 20 0 0,0
23.08.2019 04:00:00 23,6 5,0 9 5 15 8 E 1015,6 20 0 0,0
23.08.2019 03:00:00 23,9 9,0 4 2 9 5 E 1015,5 20 0 0,0
23.08.2019 02:00:00 24,7 9,4 1 1 11 6 N 1015,6 20 0 -
23.08.2019 01:00:00 26,3 10,9 3 1 19 10 SSW 1015,3 20 0 0,0
23.08.2019 00:00:00 29,2 8,8 6 3 20 11 ESE 1014,9 20 0 0,0
22.08.2019 23:00:00 30,9 6,7 9 5 16 8 ENE 1014,6 20 0 0,0
22.08.2019 22:00:00 30,9 6,7 8 4 12 7 ENE 1014,3 20 0 0,0
22.08.2019 21:00:00 33,1 7,1 5 3 12 7 NE 1014,1 20 31 0,0
22.08.2019 20:00:00 34,7 6,8 9 5 21 12 E 1013,7 20 60 -
22.08.2019 19:00:00 35,6 7,6 12 6 24 13 ESE 1013,8 20 60 0,0
22.08.2019 18:00:00 36,1 7,1 9 5 29 16 E 1014,2 20 60 0,0
22.08.2019 17:00:00 35,9 7,0 13 7 29 16 E 1014,7 20 60 0,0
22.08.2019 16:00:00 35,2 6,4 13 7 27 15 E 1015,4 20 60 0,0
22.08.2019 15:00:00 34,2 9,4 11 6 32 18 E 1016,0 20 60 0,0
22.08.2019 14:00:00 32,7 10,6 20 11 35 19 E 1016,8 20 60 -
22.08.2019 13:00:00 31,3 11,7 22 12 36 19 ESE 1017,5 20 60 0,0
22.08.2019 12:00:00 29,4 12,3 23 12 40 22 E 1017,9 20 60 0,0
22.08.2019 11:00:00 27,3 12,5 29 15 44 24 E 1018,0 20 60 0,0
22.08.2019 10:00:00 25,5 12,6 27 15 41 22 E 1018,2 20 60 0,0
22.08.2019 09:00:00 23,9 14,3 20 11 35 19 E 1018,2 20 35 0,0
22.08.2019 08:00:00 22,8 14,6 18 10 30 16 E 1017,7 20 0 -
22.08.2019 07:00:00 23,3 14,8 16 8 33 18 E 1017,3 20 0 0,0
22.08.2019 06:00:00 23,6 14,9 16 9 30 16 E 1017,0 20 0 0,0
22.08.2019 05:00:00 23,8 15,1 14 8 32 18 E 1017,2 20 0 0,0
22.08.2019 04:00:00 24,0 15,0 17 9 29 15 E 1017,0 20 0 0,0
22.08.2019 03:00:00 24,7 12,0 18 10 32 17 E 1017,1 20 0 0,0
22.08.2019 02:00:00 25,9 8,0 3 1 13 7 NNE 1016,5 20 0 -
22.08.2019 01:00:00 26,7 6,7 9 5 15 8 E 1016,4 20 0 0,0
22.08.2019 00:00:00 26,9 7,8 9 5 19 11 ENE 1015,8 20 0 0,0
21.08.2019 23:00:00 29,3 8,9 9 5 13 7 NNW 1015,1 20 0 0,0
21.08.2019 22:00:00 29,9 8,3 4 2 7 4 N 1014,3 20 0 0,0
21.08.2019 21:00:00 31,7 6,7 1 1 9 5 ENE 1014,0 20 26 0,0
21.08.2019 20:00:00 34,3 7,4 5 3 16 9 WNW 1013,5 20 60 -
21.08.2019 19:00:00 34,3 9,6 8 4 21 11 NW 1013,5 20 60 0,0
21.08.2019 18:00:00 34,9 5,3 7 4 18 10 S 1013,6 20 60 0,0
21.08.2019 17:00:00 34,5 10,4 9 5 16 9 SE 1014,0 20 60 0,0
21.08.2019 16:00:00 34,0 11,8 8 4 23 12 S 1014,6 20 58 0,0
21.08.2019 15:00:00 32,3 13,1 9 5 27 15 ESE 1015,5 16 60 0,0
21.08.2019 14:00:00 31,0 13,3 15 8 32 18 E 1016,1 20 60 -
21.08.2019 13:00:00 29,6 14,5 19 11 34 19 E 1016,4 20 60 0,0
21.08.2019 12:00:00 27,7 14,7 14 8 29 15 E 1017,1 20 56 0,0
21.08.2019 11:00:00 26,4 13,9 14 8 33 18 E 1017,1 20 41 0,0
21.08.2019 10:00:00 25,8 12,6 13 7 27 15 ENE 1017,2 20 56 0,0
21.08.2019 09:00:00 23,5 11,9 12 7 27 15 ENE 1017,2 20 3 0,0
21.08.2019 08:00:00 22,6 10,4 9 5 25 13 ENE 1017,0 20 0 -
21.08.2019 07:00:00 23,3 11,3 18 10 33 18 E 1016,2 20 0 0,0
21.08.2019 06:00:00 23,6 10,3 13 7 27 15 E 1016,0 20 0 0,0
21.08.2019 05:00:00 23,7 8,9 12 7 28 15 ENE 1015,7 20 0 0,0
21.08.2019 04:00:00 23,3 8,1 9 5 21 11 ESE 1015,6 20 0 0,0
21.08.2019 03:00:00 24,8 7,0 3 1 26 14 SSW 1015,7 20 0 0,0
21.08.2019 02:00:00 23,6 6,4 5 3 18 10 ENE 1015,7 20 0 -
21.08.2019 01:00:00 25,4 5,0 5 3 16 9 N 1015,4 20 0 0,0
21.08.2019 00:00:00 25,9 5,0 6 3 22 12 N 1015,2 20 0 0,0
20.08.2019 23:00:00 27,6 4,6 10 5 21 11 N 1014,6 20 0 0,0
20.08.2019 22:00:00 28,7 4,8 10 5 21 11 N 1014,1 20 0 0,0
20.08.2019 21:00:00 31,9 4,6 3 2 16 9 W 1013,4 12 34 0,0
20.08.2019 20:00:00 33,3 1,1 11 6 20 11 ESE 1013,0 20 60 -
20.08.2019 19:00:00 34,0 2,7 14 8 32 17 ESE 1012,9 20 60 0,0
20.08.2019 18:00:00 34,4 3,0 13 7 30 16 E 1013,1 20 60 0,0
20.08.2019 17:00:00 34,3 4,8 15 8 29 16 ESE 1013,6 20 60 0,0
20.08.2019 16:00:00 33,3 6,5 14 7 36 20 ESE 1014,3 20 60 0,0
20.08.2019 15:00:00 32,6 6,7 16 9 29 16 ESE 1014,7 20 60 0,0
20.08.2019 14:00:00 31,3 7,7 8 4 35 19 NNE 1015,4 20 60 -
20.08.2019 13:00:00 30,2 8,0 10 5 36 19 ENE 1015,8 20 60 0,0
20.08.2019 12:00:00 28,8 8,5 11 6 28 15 ENE 1016,0 20 60 0,0
20.08.2019 11:00:00 25,2 9,9 4 2 22 12 N 1016,3 20 60 0,0
20.08.2019 10:00:00 22,2 10,0 10 6 24 13 NNW 1016,4 20 60 0,0
20.08.2019 09:00:00 20,0 10,4 12 6 23 12 N 1016,1 20 35 0,0
20.08.2019 08:00:00 18,1 10,4 12 7 21 12 NNW 1015,6 20 0 -
20.08.2019 07:00:00 18,2 10,8 14 7 23 12 NNW 1015,3 20 0 0,0
20.08.2019 06:00:00 18,9 11,0 13 7 22 12 NNW 1014,8 20 0 0,0
20.08.2019 05:00:00 19,4 10,9 14 7 21 11 NNW 1014,3 20 0 0,0
20.08.2019 04:00:00 20,1 10,8 11 6 21 12 NNW 1014,0 20 0 0,0
20.08.2019 03:00:00 21,4 10,5 11 6 23 12 N 1014,0 20 0 0,0
20.08.2019 02:00:00 22,5 11,2 14 8 27 15 NNW 1014,2 20 0 -
20.08.2019 01:00:00 23,8 10,2 15 8 26 14 NW 1014,3 20 0 0,0
20.08.2019 00:00:00 24,7 8,3 9 5 16 8 NNW 1013,7 20 0 0,0
19.08.2019 23:00:00 25,6 8,1 5 3 22 12 SW 1013,4 20 0 0,0
19.08.2019 22:00:00 26,8 7,3 13 7 28 15 W 1012,9 20 0 0,0
19.08.2019 21:00:00 28,8 6,2 8 5 25 14 NNW 1012,1 20 3 0,0
19.08.2019 20:00:00 29,9 5,9 13 7 26 14 NNW 1011,7 20 11 -
19.08.2019 19:00:00 30,7 2,1 10 6 28 15 WNW 1012,1 20 18 0,0
19.08.2019 18:00:00 31,3 3,4 10 5 21 11 W 1012,0 20 4 0,0
19.08.2019 17:00:00 32,6 5,9 3 2 18 10 S 1012,2 20 42 0,0
19.08.2019 16:00:00 31,1 7,6 6 3 17 9 SW 1012,8 20 31 0,0
19.08.2019 15:00:00 30,7 10,0 9 5 22 12 SSW 1013,4 20 57 0,0
19.08.2019 14:00:00 29,1 9,8 6 3 20 11 WSW 1014,1 20 60 -
19.08.2019 13:00:00 28,0 12,0 8 5 22 12 W 1014,3 20 60 0,0
19.08.2019 12:00:00 26,1 12,5 7 4 19 10 WNW 1014,4 20 60 0,0
19.08.2019 11:00:00 24,2 12,5 8 4 20 11 NW 1014,6 20 60 0,0
19.08.2019 10:00:00 21,6 12,4 10 5 23 12 NW 1014,4 20 58 0,0
19.08.2019 09:00:00 20,2 13,0 7 4 21 12 NNW 1014,5 20 19 0,0
19.08.2019 08:00:00 17,9 12,7 5 3 19 10 SW 1014,7 20 0 -

tt = temperature
td = dewpoint
ff = wind speed
fx = gusts
dd = wind direction
ppp = reduced air pressure
vv = visibility
sd = sunshine duration
rr = precipitation

Next stations